Wind_Speed
21 21 20 20 20 20 20 20 20 18 17 19 20 21 20 19 19 19 20 20 19 18 18 18 17 16 15 14 13 12 11 11 10 10 10 10 10 9 9 9 9 9 9 9
21 20 19 21 22 22 22 23 22 20 19 20 21 21 21 21 20 19 20 20 20 20 19 19 19 18 17 16 15 14 13 12 12 11 11 11 11 10 10 10 10 10 10 10
21 19 21 22 22 23 24 24 22 21 20 21 22 22 22 22 22 21 20 19 20 20 21 20 20 19 18 17 16 15 14 14 14 14 13 13 12 12 12 12 11 11 11 11
21 21 22 21 21 23 25 23 23 22 23 22 22 24 22 22 22 22 21 21 20 20 21 21 20 20 20 18 18 17 16 16 16 15 15 14 13 13 13 13 12 12 12 12
21 21 22 23 22 23 24 23 23 23 24 25 24 26 24 23 23 22 22 21 21 19 20 21 21 20 20 20 20 19 18 17 17 17 16 16 15 14 14 14 13 13 13 13
20 20 23 23 23 23 23 24 24 24 26 27 25 27 26 25 25 24 25 24 23 22 21 21 21 21 21 22 21 20 19 18 18 18 18 17 16 15 15 15 15 15 15 14
21 21 21 22 23 24 23 24 24 26 27 29 28 30 29 26 25 25 25 25 25 24 23 22 22 22 22 22 22 21 19 19 19 19 19 18 17 16 16 17 16 16 16 16
21 20 20 21 22 22 22 23 25 26 26 26 28 31 29 27 27 27 26 25 26 25 23 23 22 23 24 23 22 21 20 19 19 20 19 19 19 18 18 18 18 17 17 17
21 21 20 21 22 23 22 23 24 26 26 27 28 28 27 27 27 26 26 26 27 25 24 24 24 25 25 24 23 22 21 21 21 20 20 20 20 19 19 20 19 19 19 19
22 22 21 23 24 24 25 24 24 27 28 29 28 27 27 25 27 27 27 28 28 27 26 25 25 25 25 25 24 23 22 22 22 21 20 21 21 21 20 20 20 20 20 20
21 22 21 23 23 23 23 24 26 27 29 30 29 27 26 26 27 27 28 30 29 28 25 24 24 24 24 24 23 24 24 24 23 23 22 21 22 22 22 21 21 21 21 21
21 22 22 23 23 23 23 24 26 28 29 30 30 28 26 26 27 27 27 29 30 30 28 27 25 24 24 25 25 25 26 26 24 24 24 23 23 23 22 22 22 22 22 22
21 23 23 23 23 23 24 25 26 27 29 30 31 30 28 28 29 30 30 31 31 31 30 28 27 25 25 26 26 27 27 27 27 26 26 25 24 24 24 23 23 23 24 23
22 24 24 25 25 25 26 26 26 27 29 29 30 30 29 30 30 31 32 32 32 31 31 30 28 27 27 27 28 27 27 26 27 27 26 25 25 25 25 25 25 24 24 24
23 24 25 24 25 27 28 29 29 29 30 29 29 29 29 31 31 31 32 33 32 31 31 31 30 30 29 28 28 29 29 28 27 27 27 27 26 26 26 26 26 26 25 25
23 23 24 24 25 26 27 28 29 29 30 30 30 30 30 30 31 31 32 33 32 31 30 30 31 32 30 29 29 29 29 28 28 28 28 28 27 27 27 26 27 26 26 25
22 22 23 24 24 25 25 26 28 29 30 30 30 30 31 31 30 31 31 32 32 31 31 31 31 31 31 31 31 30 29 27 27 28 27 27 28 27 27 27 27 27 26 26
23 23 24 23 23 23 23 24 25 26 28 29 29 29 30 31 31 31 30 31 31 31 32 32 31 31 30 30 30 29 28 27 27 27 26 27 27 27 27 28 27 27 27 27
21 22 22 22 22 22 22 23 24 25 26 26 27 28 28 29 29 30 30 31 30 30 30 30 28 28 29 29 29 28 28 28 28 27 26 27 27 26 27 28 28 27 27 26
20 21 21 21 21 21 21 22 22 23 24 24 25 27 27 27 28 27 27 30 30 29 29 29 28 29 29 29 28 27 27 28 28 28 27 27 26 26 26 26 26 26 26 26
19 20 21 21 21 21 21 20 22 23 24 24 24 25 26 26 27 26 26 27 27 28 28 28 27 27 26 26 27 27 27 27 27 26 26 26 26 25 25 25 26 26 26 25
18 19 20 20 21 21 21 21 22 22 23 23 23 23 24 25 25 25 25 25 25 25 25 25 24 24 25 25 26 27 26 26 26 25 25 26 26 25 24 24 25 25 24 24
16 17 18 19 19 20 20 20 21 22 22 21 22 22 22 23 24 25 25 24 23 24 24 23 23 23 24 25 26 26 26 26 26 26 25 25 26 25 23 23 24 24 24 24
16 17 18 19 20 20 19 19 19 20 21 21 21 21 21 21 22 22 22 22 22 23 23 23 24 24 24 25 25 25 25 26 26 26 25 25 25 24 24 24 25 25 25 25
15 16 17 18 19 19 18 19 20 20 19 20 21 21 21 21 21 21 22 23 23 23 24 24 25 26 26 26 27 26 26 27 26 26 26 26 26 26 26 25 25 25 25 25
15 16 16 16 16 17 17 18 19 20 19 18 18 19 19 21 22 22 22 23 23 23 23 23 24 25 25 26 26 26 26 25 25 26 26 27 26 26 27 27 26 26 26 26
Wind_Direction
238 238 239 241 244 244 242 242 244 245 248 253 255 259 263 260 261 264 265 266 266 271 274 277 281 283 283 285 288 291 289 283 285 290 295 296 296 295 293 296 304 310 311 310
241 242 242 242 242 243 242 246 249 249 250 253 253 255 259 262 263 264 267 266 267 270 270 274 277 279 280 282 284 286 282 285 282 284 285 286 287 288 288 291 296 300 303 303
245 245 243 242 241 242 244 246 247 251 251 251 253 255 255 256 258 263 268 267 268 270 271 272 273 274 275 277 280 280 279 278 280 283 281 279 279 279 280 286 288 290 295 298
245 243 244 243 242 243 244 244 246 248 249 251 253 257 256 255 255 261 265 266 269 269 269 269 269 269 270 271 274 276 277 275 276 280 278 276 276 274 276 281 282 285 289 293
249 248 247 247 245 246 245 244 245 245 247 248 249 254 254 255 257 259 262 266 266 266 266 268 266 266 267 270 271 271 272 273 275 277 277 273 272 272 273 276 277 282 287 291
249 248 248 249 250 248 247 245 244 244 245 247 248 252 253 255 260 261 262 262 265 267 267 267 265 266 267 267 268 266 269 270 272 274 275 272 269 270 272 273 274 279 283 286
246 245 247 248 248 246 246 247 249 247 246 247 247 251 253 255 257 260 261 261 263 267 268 265 265 266 267 265 265 264 266 268 269 272 271 269 268 269 272 273 273 277 280 282
250 246 244 245 246 247 247 249 252 254 254 252 249 253 256 255 257 257 259 261 263 266 268 266 264 264 266 262 261 261 263 264 266 269 268 265 266 269 271 271 272 275 278 280
254 249 243 243 244 246 247 250 255 257 259 258 255 255 254 257 258 259 260 260 261 264 269 265 262 261 262 261 260 259 261 262 264 266 265 263 266 266 269 270 271 273 278 279
255 251 244 244 243 244 248 251 253 255 258 259 258 256 255 260 258 257 257 258 261 264 266 262 262 261 261 260 261 261 261 262 262 265 266 264 265 266 266 269 270 272 275 279
256 254 248 245 242 243 245 247 249 254 257 259 260 261 261 265 266 264 262 260 261 264 259 261 260 259 262 261 260 262 262 262 262 264 267 267 266 266 266 269 269 270 272 275
257 256 249 246 248 246 246 247 249 251 255 257 260 263 262 263 263 263 262 261 260 261 260 261 262 262 262 261 260 259 261 263 262 262 264 266 267 266 267 270 271 270 271 273
256 258 255 247 246 247 246 247 250 252 255 256 257 259 261 262 262 263 263 261 261 261 259 259 260 261 261 259 258 258 260 260 260 260 261 262 264 266 268 271 272 270 270 273
254 256 258 255 250 248 247 248 250 252 254 255 257 257 257 259 262 263 263 262 262 262 260 262 262 260 261 258 257 258 260 260 259 259 258 259 261 262 265 268 268 269 269 271
257 257 258 258 256 252 250 250 251 252 252 255 257 258 259 259 260 263 263 263 263 264 264 263 262 261 262 261 259 257 259 260 260 261 260 257 259 261 263 265 266 268 269 271
260 261 259 258 258 256 254 252 252 254 254 256 258 261 260 259 261 263 265 265 264 264 264 263 263 262 262 261 260 260 260 259 259 260 260 257 258 259 261 263 265 267 268 271
264 266 263 258 255 254 257 255 254 255 255 258 260 261 261 260 261 262 262 264 265 264 263 263 263 260 259 259 260 261 261 260 259 259 260 258 257 258 259 262 264 266 267 269
268 268 267 261 256 255 258 256 257 258 258 259 262 261 262 261 261 263 262 262 261 261 262 262 264 259 257 257 258 258 259 260 260 260 257 257 256 255 257 259 262 264 266 268
269 269 268 263 260 260 258 259 260 261 261 262 262 262 264 265 264 263 262 264 264 263 263 264 262 257 257 257 257 258 257 258 260 259 258 257 255 255 257 258 259 262 264 267
269 267 267 264 266 264 261 263 263 264 263 266 266 264 265 266 265 265 266 266 265 264 264 264 262 262 260 256 256 257 257 258 258 258 259 257 255 255 258 258 257 260 262 263
273 269 265 266 269 268 269 270 266 266 267 269 270 269 267 266 267 269 268 266 265 266 264 264 263 261 258 255 255 256 257 257 257 258 257 256 257 256 258 256 256 259 260 261
278 275 269 268 271 273 274 272 268 267 267 268 270 272 270 267 266 267 267 267 267 267 265 265 261 258 257 256 257 256 256 256 255 255 255 254 255 256 256 255 254 256 258 259
276 272 271 271 274 277 276 275 269 264 266 267 270 272 273 269 269 268 268 268 267 263 260 262 259 256 256 256 257 257 255 255 255 255 254 255 257 256 257 257 256 256 257 259
274 274 273 274 276 277 278 276 274 272 273 269 270 272 274 272 269 270 269 269 268 263 257 258 257 256 257 258 257 257 257 256 255 255 257 259 258 256 256 256 257 258 259 261
275 275 276 278 278 280 278 277 278 280 279 273 270 273 274 273 270 271 272 270 267 264 262 262 260 259 259 259 258 258 259 258 255 255 256 257 258 258 258 257 257 260 259 261
276 275 275 277 279 284 284 280 276 278 279 276 274 274 274 274 273 272 269 269 269 268 266 264 260 258 259 258 258 259 260 259 257 256 256 258 258 257 257 259 261 262 262 262
Height
5861 5863 5865 5867 5868 5869 5870 5872 5873 5875 5875 5875 5876 5877 5879 5879 5880 5881 5881 5882 5882 5882 5882 5883 5883 5883 5882 5882 5882 5882 5881 5881 5880 5879 5879 5879 5878 5878 5877 5876 5875 5874 5873 5872
5856 5858 5860 5861 5862 5863 5864 5866 5867 5869 5870 5870 5871 5872 5873 5873 5875 5875 5876 5877 5877 5878 5878 5879 5879 5879 5879 5879 5879 5879 5878 5878 5877 5876 5876 5876 5876 5875 5874 5874 5873 5872 5871 5870
5850 5854 5854 5855 5856 5857 5859 5860 5861 5862 5864 5865 5866 5866 5867 5868 5869 5869 5871 5871 5872 5873 5874 5874 5874 5874 5874 5875 5875 5875 5875 5875 5874 5874 5873 5873 5873 5872 5872 5871 5870 5870 5868 5867
5845 5847 5848 5849 5850 5851 5852 5855 5855 5856 5857 5858 5860 5860 5862 5862 5863 5864 5865 5866 5866 5867 5868 5869 5869 5869 5869 5870 5870 5871 5871 5871 5870 5870 5869 5869 5869 5869 5869 5868 5867 5866 5866 5865
5840 5841 5842 5843 5845 5846 5847 5848 5849 5850 5850 5852 5853 5853 5855 5856 5857 5858 5859 5859 5860 5861 5862 5863 5864 5864 5864 5865 5866 5866 5867 5866 5866 5866 5865 5865 5865 5865 5865 5864 5864 5863 5862 5861
5834 5835 5836 5837 5839 5840 5841 5842 5843 5844 5844 5845 5847 5847 5848 5849 5850 5851 5852 5852 5853 5854 5856 5857 5858 5859 5860 5860 5861 5861 5861 5861 5861 5861 5860 5860 5861 5861 5861 5860 5860 5859 5858 5858
5827 5829 5830 5831 5832 5834 5835 5836 5836 5837 5837 5838 5841 5840 5842 5844 5844 5845 5845 5846 5847 5848 5849 5851 5852 5853 5854 5855 5855 5855 5855 5856 5856 5855 5855 5855 5856 5856 5856 5856 5856 5855 5854 5853
5820 5823 5824 5825 5826 5827 5828 5830 5830 5831 5831 5833 5834 5833 5836 5837 5838 5838 5839 5840 5841 5841 5842 5843 5845 5846 5847 5848 5849 5849 5849 5850 5850 5850 5849 5850 5851 5851 5851 5851 5851 5850 5850 5849
5814 5816 5818 5819 5820 5821 5822 5823 5825 5825 5824 5825 5826 5827 5829 5829 5830 5831 5832 5833 5834 5835 5836 5837 5838 5839 5840 5841 5842 5842 5843 5844 5844 5844 5844 5844 5845 5845 5846 5846 5846 5845 5845 5844
5807 5810 5812 5813 5814 5815 5816 5817 5818 5818 5817 5817 5819 5820 5822 5822 5822 5824 5825 5826 5827 5829 5829 5830 5831 5832 5832 5833 5834 5835 5837 5837 5838 5838 5838 5838 5839 5839 5840 5840 5840 5840 5840 5839
5801 5803 5805 5806 5807 5808 5810 5811 5810 5811 5811 5811 5811 5815 5815 5815 5815 5816 5817 5818 5820 5821 5822 5823 5823 5824 5825 5825 5827 5828 5830 5831 5831 5831 5832 5832 5833 5833 5833 5834 5834 5834 5834 5833
5795 5796 5797 5799 5800 5801 5802 5803 5804 5805 5804 5804 5804 5809 5807 5807 5807 5807 5808 5809 5811 5812 5814 5815 5816 5817 5818 5818 5819 5821 5822 5823 5824 5825 5825 5826 5827 5827 5827 5828 5828 5828 5828 5827
5789 5790 5791 5793 5796 5796 5795 5796 5797 5797 5797 5797 5797 5801 5799 5799 5799 5799 5800 5801 5802 5804 5805 5807 5808 5809 5810 5811 5812 5813 5814 5815 5816 5817 5818 5819 5819 5820 5821 5821 5821 5821 5821 5821
5783 5784 5786 5787 5787 5787 5788 5789 5789 5790 5789 5789 5790 5791 5792 5791 5792 5792 5792 5793 5794 5795 5797 5799 5800 5802 5802 5803 5804 5805 5805 5806 5808 5809 5810 5811 5812 5813 5814 5814 5814 5815 5815 5815
5777 5777 5778 5778 5779 5780 5780 5781 5781 5782 5782 5782 5783 5783 5784 5783 5783 5783 5784 5784 5785 5787 5789 5790 5792 5793 5794 5795 5796 5797 5797 5799 5800 5801 5802 5803 5804 5805 5806 5807 5807 5808 5808 5808
5770 5770 5770 5771 5772 5773 5773 5773 5773 5774 5774 5774 5774 5775 5776 5775 5775 5775 5775 5776 5777 5778 5779 5781 5783 5784 5785 5786 5787 5788 5789 5790 5791 5793 5793 5795 5796 5797 5798 5799 5800 5800 5801 5801
5763 5763 5763 5764 5765 5765 5766 5766 5766 5767 5766 5767 5766 5768 5767 5767 5767 5767 5767 5768 5768 5769 5771 5772 5774 5775 5776 5778 5779 5779 5780 5782 5783 5784 5785 5786 5788 5789 5790 5791 5792 5792 5793 5793
5756 5756 5756 5757 5759 5758 5761 5759 5759 5759 5759 5759 5759 5759 5759 5759 5759 5759 5759 5759 5760 5761 5762 5763 5764 5765 5766 5768 5769 5770 5771 5773 5775 5776 5777 5778 5780 5781 5782 5782 5783 5784 5784 5785
5750 5750 5750 5750 5751 5751 5753 5752 5751 5750 5751 5751 5751 5751 5750 5750 5750 5750 5751 5751 5751 5752 5753 5754 5754 5755 5757 5759 5760 5761 5763 5765 5766 5767 5768 5770 5771 5772 5773 5774 5775 5775 5776 5777
5744 5744 5744 5743 5744 5744 5747 5746 5744 5744 5744 5744 5743 5742 5742 5742 5742 5743 5742 5742 5743 5743 5744 5745 5745 5746 5748 5750 5752 5753 5755 5757 5758 5759 5760 5762 5763 5764 5765 5766 5766 5767 5768 5769
5739 5738 5738 5738 5737 5738 5739 5738 5738 5739 5739 5737 5736 5735 5735 5735 5736 5736 5735 5734 5734 5735 5736 5737 5737 5739 5740 5742 5744 5746 5747 5749 5750 5751 5752 5754 5754 5755 5757 5757 5758 5759 5760 5761
5733 5733 5733 5733 5733 5734 5732 5732 5732 5732 5731 5730 5730 5729 5728 5728 5728 5727 5727 5727 5727 5727 5728 5729 5730 5732 5733 5735 5736 5738 5740 5741 5742 5743 5745 5746 5747 5748 5749 5749 5750 5751 5752 5753
5729 5729 5729 5729 5730 5728 5726 5726 5725 5725 5725 5725 5724 5723 5722 5721 5720 5720 5720 5720 5720 5721 5722 5723 5724 5725 5726 5727 5729 5730 5732 5734 5735 5736 5738 5738 5739 5739 5741 5742 5743 5744 5745 5745
5725 5725 5724 5724 5723 5722 5722 5721 5720 5719 5719 5718 5718 5717 5715 5715 5714 5714 5714 5714 5714 5714 5715 5716 5717 5719 5719 5720 5722 5723 5725 5726 5728 5729 5730 5731 5732 5732 5733 5734 5735 5736 5737 5737
5721 5720 5720 5719 5718 5717 5717 5716 5715 5714 5713 5712 5712 5711 5710 5709 5709 5708 5707 5707 5707 5708 5709 5709 5710 5711 5712 5714 5715 5716 5717 5718 5720 5721 5723 5724 5725 5725 5725 5726 5727 5727 5728 5729
5717 5717 5716 5715 5714 5713 5711 5710 5709 5709 5708 5707 5706 5705 5705 5704 5703 5701 5701 5700 5700 5701 5701 5701 5702 5703 5705 5706 5708 5709 5710 5711 5712 5714 5714 5715 5716 5717 5718 5718 5719 5719 5720 5721